Regional Weather Roundup
Issued by NWS

Home | Current Version | Previous Version | Graphics & Text | Print | Product List | Glossary On
Versions: 1 2 3 4 5 6 7 8 9 10 11 12 13 14 15 16 17 18 19 20 21 22 23 24 25 26 27 28 29 30 31 32 33 34 35 36 37 38 39 40 41 42 43 44 45 46 47 48 49 50
000
ASUS43 KMKX 222100
RWRWI

WISCONSIN REGIONAL WEATHER ROUNDUP
NATIONAL WEATHER SERVICE MILWAUKEE/SULLIVAN WI
400 PM CDT TUE APR 22 2014

NOTE: "FAIR" INDICATES FEW OR NO CLOUDS BELOW 12,000 FEET WITH NO
SIGNIFICANT WEATHER AND/OR OBSTRUCTIONS TO VISIBILITY.

WIZ001-002-006>008-014>016-023>028-222200-
NORTHWEST WISCONSIN

CITY           SKY/WX    TMP DP  RH WIND       PRES   REMARKS
SUPERIOR ARPT  SUNNY     53  24  32 N6G16     30.08F
ASHLAND        SUNNY     50  27  40 N10       30.09S
HAYWARD        SUNNY     52  23  32 VRB6      30.07F
SIREN          SUNNY     53  21  28 N14       30.08F
RICE LAKE      SUNNY     52  22  30 N7        30.08S
LADYSMITH      SUNNY     51  26  37 NW16      30.07S
EAU CLAIRE     SUNNY     56  20  24 NW16G23   30.05F
MENOMONIE      CLEAR     55  21  26 NW9       30.07S
NEW RICHMOND   SUNNY     54  26  34 NW14      30.07F
OSCEOLA        SUNNY     55  25  31 N12G22    30.10F
$$

WIZ003>005-009-010-017-018-222200-
NORTH CENTRAL WISCONSIN

CITY           SKY/WX    TMP DP  RH WIND       PRES   REMARKS
WOODRUFF       PTSUNNY   44  26  50 N15       30.04S
RHINELANDER    CLOUDY    42  24  49 N14G22    30.04R
EAGLE RIVER    CLOUDY    39  24  53 N13G24    30.03S WCI  32
LAND O LAKES   CLOUDY    39  26  59 N10G21    30.04R WCI  32
PHILLIPS       MOSUNNY   46  24  42 NW12      30.04F
TOMAHAWK       MOSUNNY   47  24  40 NW14      30.04S
MEDFORD        MOSUNNY   49  26  41 N14       30.02S
MERRILL        SUNNY     48  25  40 N18G26    30.03R
$$

WIZ029-030-035-036-043>047-222200-
CENTRAL WISCONSIN

CITY           SKY/WX    TMP DP  RH WIND       PRES   REMARKS
WAUSAU         SUNNY     50  23  34 N14G26    30.00S
MOSINEE        MOSUNNY   48  25  40 NW13G23   30.02F
MARSHFIELD     MOSUNNY   53  25  33 NW10G25   30.02S
STEVENS POINT  MOSUNNY   49  23  36 NW10G20   30.01S
WAUPACA        SUNNY     55  21  26 N16G23    30.00R
WAUTOMA        NOT AVBL
WISC RAPIDS    SUNNY     55  24  30 NW16G24   30.02S
CAMP DOUGLAS   NOT AVBL
$$

WIZ011>013-019>022-031-037>040-048>050-222200-
NORTHEAST WISCONSIN

CITY           SKY/WX    TMP DP  RH WIND       PRES   REMARKS
ANTIGO         PTSUNNY   44  27  50 NW15      30.02S
STURGEON BAY   CLOUDY    45  27  49 NW15      29.99S
GREEN BAY      MOSUNNY   49  30  48 N23       30.00R
MANITOWOC      NOT AVBL
APPLETON       MOSUNNY   50  25  37 NW21G28   30.00R
CLINTONVILLE   MOSUNNY   50  23  34 N15G25    30.01R
OSHKOSH        SUNNY     53  27  36 N15       29.98S
$$

WIZ032>034-041-042-053>061-222200-
SOUTHWEST WISCONSIN

CITY           SKY/WX    TMP DP  RH WIND       PRES   REMARKS
LA CROSSE      MOSUNNY   60  25  26 NW14      30.02F
SPARTA         SUNNY     56  22  26 N12G23    30.04S
VIROQUA        FAIR      56  26  31 N16G23    30.02F
BOSCOBEL       MOSUNNY   59  23  25 NW10G23   30.02F
PRAIRIE DU CHI PTSUNNY   58  25  28 NW10G20   30.03F
PLATTEVILLE    FAIR      56  26  31 NW12      30.02S
$$

WIZ056-057-062-063-064-067-068-222200-
SOUTH CENTRAL WISCONSIN

CITY           SKY/WX    TMP DP  RH WIND       PRES   REMARKS
BARABOO/DELLS  SUNNY     55  24  30 NW13G21   29.99F
LONE ROCK      NOT AVBL
WATERTOWN      MOSUNNY   55  29  38 W20G28    29.97F
MADISON        MOSUNNY   58  25  28 N13       29.99S
MIDDLETON      FAIR      58  23  25 N12G23    29.99F
MONROE         MOSUNNY   57  25  29 NW14G24   29.98S
JANESVILLE     SUNNY     61  23  23 NW17G23   29.96F
$$

WIZ051-052-058>065-066-070>072-222200-
SOUTHEAST WISCONSIN

CITY           SKY/WX    TMP DP  RH WIND       PRES   REMARKS
MILWAUKEE      PTSUNNY   47  33  58 E12       29.98R
WAUKESHA       MOSUNNY   54  28  37 NW14G26   29.98R
MILWAUKEE/TIMM MOSUNNY   55  27  33 NW15G23   29.97S
RACINE         MOSUNNY   46  31  55 E8        29.99S
BURLINGTON     SUNNY     55  29  35 NW20      29.96S
KENOSHA        PTSUNNY   48  33  56 E14       29.97R
FOND DU LAC    MOSUNNY   54  27  35 N17G28    29.98S
SHEBOYGAN      PTSUNNY   52  28  39 N14G25    29.98R
WEST BEND      MOSUNNY   52  27  37 NW17G23   29.97R
JUNEAU         MOSUNNY   54  20  26 NW15      29.99R
$$

LSZ147-162-222200-
LAKE SUPERIOR

STATION/POSITION TIME  TEMP    WIND        PRES    WAVE
                       AIR SEA DIR/SP/G            HT/PER
                 (UTC) (F)     (DEG/KT/KT) (MB)    (FT/S)
DEVILS ISLAND    2000   42     230/  7/  8 1019.6S
PORT WING        2000   43     290/  6/  7 1019.0F
SAXON HARBOR     2000             CALM     1019.3F
$$

LMZ867-665-643>646-222200-
LAKE MICHIGAN

STATION/POSITION TIME  TEMP    WIND        PRES    WAVE
                       AIR SEA DIR/SP/G            HT/PER
                 (UTC) (F)     (DEG/KT/KT) (MB)    (FT/S)
NORTHPORT PIER   2000   36     310/ 11/ 14 1014.9R
SISTER BAY       2009   41     360/ 17/ 20   N/A
KEWAUNEE LAKESHO 2000   45     320/ 16/ 21 1016.1R
SHEBOYGAN LAKESH 2000   48      10/ 19/ 21 1015.5R
PORT WASHINGTON  2040   54     350/  8/ 17 1015.6R
MILWAUKEE LAKESH 2000   42      80/ 11/ 13   N/A
KENOSHA   LAKESH 2000   45     100/  5/  8   N/A
$$

TC  - TEMPERATURE IN CELSIUS
VSB - VISIBILITY IN STATUTE MILES
WCI - WIND CHILL INDEX
HX  - HEAT INDEX




USA.gov is the U.S. government's official web portal to all federal, state and local government web resources and services.